Weather in Volno-Nadezgdinskoe

Russia / Primorsky Krai     43°22′18″N   131°59′23″E
temp.,
°C
wind,
m/s
gust,
m/s
humid.,
%
clouds,
%
prec.,
mm/h
press.,
hPa
HPBL,
m
5 march, fri
fri501:00−1sse229313 0.0 101727
04:00−1sse22926 0.0 101621
07:00−2ssw22910 0.0 101521
10:00+1sse118545 0.0 101553
13:00+4ssw2470100 0.0 1016228
16:00+2n91462100 0.0 1018896
19:00−3nnw111756100 0.0 1024975
22:00−8nnw111651100 0.0 10281014
6 march, sat
sat601:00−12n1015520 0.0 10311102
04:00−14n813570 0.0 10331068
07:00−15n713570 0.0 1036997
10:00−13n812530 0.0 10371077
13:00−11n710500 0.0 10361027
16:00−8n69480 0.0 10341034
19:00−9nne46560 0.0 1034436
22:00−10ne24630 0.0 1035133
7 march, sun
sun701:00−11n12680 0.0 103429
04:00−12nnw11700 0.0 103321
07:00−12e11690 0.0 103221
10:00−8sse23570 0.0 1031196
13:00−5s476720 0.0 1028553
16:00−2ssw6107828 0.0 1025614
19:00−4s598610 0.0 1024276
22:00−5s23905 0.0 102661
8 march, mon
mon801:00−5n35830 0.0 1027100
04:00−6nnw36730 0.0 1028173
07:00−7n37740 0.0 1029186
10:00−5n58650 0.0 1030483
13:00−2n47520 0.0 1029598
16:00+1nne01450 0.0 1027484
19:00−3ssw33660 0.0 102651
22:00−4s34701 0.0 102779
9 march, tue
tue901:00−4sse33790 0.0 102550
04:00−4sse34870 0.0 102367
07:00−2sse489139 0.0 1021162
10:00+1s6109154 0.0 1019427
13:00+2s597922 0.0 1016375
16:00+3ssw596619 0.0 1015269
19:00+2nw6154699 0.0 1018974
22:00−2nw5135559 0.0 1022757